Tracking 20037 objects as of 20-Nov-2019
Live streaming from Space Station
objects crossing your sky now

COSMOS 795

Track COSMOS 795 now!
10-day predictions
COSMOS 795 is classified as:


NORAD ID: 8611
Int'l Code: 1976-008E
Perigee: 1,474.0 km
Apogee: 1,504.9 km
Inclination: 74.1 °
Period: 115.6 minutes
Semi major axis: 7860 km
RCS: 0.6779 m2 (medium)
Launch date: January 28, 1976
Source: Commonwealth of Independent States (former USSR) (CIS)
Launch site: PLESETSK MISSILE AND SPACE COMPLEX (PKMTR)
aabbcc
Your satellite tracking list
Your tracking list is empty




NASA's NSSDC Master Catalog

Two Line Element Set (TLE):
1  8611U 76008E   19324.07172562 -.00000000  00000-0  10570-3 0  9993
2  8611  74.0528 115.7651 0019658  32.4074 327.8178 12.45755132992550
Source of the keplerian elements: AFSPC